Location: Eppenbrunn
(49.1158°N, 7.5601°E)
Time: 11:10:36
(UTC+00:00)

Cosmos 1697 Rocket - Pass Details

Date: 09 April 2020
Orbit: 831 x 845 km, 71.0° (Epoch: 27 May)

Event Time Altitude Azimuth Distance (km) Brightness Sun altitude
Rises 19:22:06 0° 335° (NNW) 3,412 6.8 -11.4°
Reaches altitude 10° 19:25:02 10° 349° (N) 2,475 5.7 -11.8°
Maximum altitude 19:29:36 24° 43° (NE) 1,677 4.1 -12.4°
Enters shadow 19:33:14 14° 89° (E) 2,212 4.4 -13.0°
